Regional Weather Roundup
Issued by NWS

Home | Current Version | Previous Version | Text Only | Print | Product List | Glossary On
Versions: 1 2 3 4 5 6 7 8 9 10 11 12 13 14 15 16 17 18 19 20 21 22 23 24 25 26 27 28 29 30 31 32 33 34 35 36 37 38 39 40 41 42 43 44 45 46 47 48 49 50
000
ASUS43 KDTX 210001
RWRMI
MICHIGAN HOURLY REGIONAL WEATHER ROUNDUP
NATIONAL WEATHER SERVICE DETROIT/PONTIAC MI
800 PM EDT MON OCT 20 2014

NOTE: "FAIR" INDICATES FEW OR NO CLOUDS BELOW 12,000 FEET WITH NO
SIGNIFICANT WEATHER AND/OR OBSTRUCTION TO VISIBILITY.

MIZ047>049-052>055-059>063-066>070-074>076-081>083-210100-
SOUTHEAST LOWER MICHIGAN

CITY           SKY/WX    TMP DP  RH WIND       PRES   REMARKS
ADRIAN         LGT RAIN  51  49  92 W3        29.86R
6HR MIN TEMP:  51; 6HR MAX TEMP:  53; 6HR PCP: TRACE;

ALMA           CLOUDY    51  43  75 NW10      29.88R
ANN ARBOR      LGT RAIN  52  48  86 W6        29.84R
BAD AXE        LGT RAIN  50  50  99 NW3       29.84R
6HR MIN TEMP:  50; 6HR MAX TEMP:  52;

CARO           CLOUDY    53  48  83 CALM      29.84R
DETROIT CITY   CLOUDY    57  48  72 CALM      29.82R
6HR MIN TEMP:  57; 6HR MAX TEMP:  59; 6HR PCP:  0.01;

DETROIT        MOCLDY    53  48  83 SW6       29.84R
6HR MIN TEMP:  53; 6HR MAX TEMP:  58; 6HR PCP:  0.01;

FLINT          RAIN      54  51  90 N7        29.85R FOG
6HR MIN TEMP:  54; 6HR MAX TEMP:  58; 6HR PCP:  0.10;

GROSSE ILE     CLOUDY    54  48  82 W5        29.82R
HILLSDALE      CLOUDY    54  52  94 W6        29.86R
6HR MIN TEMP:  52; 6HR MAX TEMP:  55;

HOWELL         CLOUDY    52  50  93 W5        29.83R

CITY           SKY/WX    TMP DP  RH WIND       PRES   REMARKS
JACKSON        CLOUDY    53  50  89 W3        29.85R
6HR MIN TEMP:  52; 6HR MAX TEMP:  56; 6HR PCP:  0.11;

LAMBERTVILLE   MOCLDY    54  48  82 CALM      29.85R
LANSING        CLOUDY    54  47  77 NW7       29.86R
6HR MIN TEMP:  53; 6HR MAX TEMP:  59; 6HR PCP:  0.03;

LAPEER         CLOUDY    52  48  86 CALM      29.83R
MASON          CLOUDY    53  50  90 NW6       29.85R
MONROE         MOCLDY    52  48  87 W3        29.83R
MT. CLEMENS    CLOUDY    55  49  80 CALM      29.80R
6HR MIN TEMP:  55; 6HR MAX TEMP:  56; 6HR PCP: TRACE;

PONTIAC        CLOUDY    53  48  83 W6        29.82R
6HR MIN TEMP:  53; 6HR MAX TEMP:  55; 6HR PCP: TRACE;

PORT HOPE        N/A     51  49  92 NW5       29.82R
6HR MIN TEMP:  51; 6HR MAX TEMP:  54; 6HR PCP:  0.02;

PORT HURON     CLOUDY    50  50 100 CALM      29.82R FOG
TRI CITIES     CLOUDY    52  43  71 N14       29.87R
6HR MIN TEMP:  52; 6HR MAX TEMP:  59;

TROY           CLOUDY    57  48  72 W3        29.84R
SAGINAW HB     CLOUDY    52  45  76 NW13G18   29.85R
$$
MIZ043>046-050>051-056>058-064>065-071>073-077>080-210100-
SOUTHWEST LOWER MICHIGAN

CITY           SKY/WX    TMP DP  RH WIND       PRES   REMARKS
BATTLE CREEK   CLOUDY    54  47  77 NW10      29.88R
6HR MIN TEMP:  53; 6HR MAX TEMP:  60;

BENTON HARBOR  CLOUDY    52  46  80 VRB7      29.93R
6HR MIN TEMP:  52; 6HR MAX TEMP:  55;

BIG RAPIDS     LGT RAIN  47  47 100 NW5       29.91R
6HR MIN TEMP:  47; 6HR MAX TEMP:  55;

COLDWATER      CLOUDY    55  50  82 W9        29.88R
6HR MIN TEMP:  53; 6HR MAX TEMP:  58;

FREMONT        CLOUDY    47  44  87 N8        29.92R
HOLLAND        CLOUDY    53  44  71 VRB6      29.93R
6HR MIN TEMP:  53; 6HR MAX TEMP:  60;

GRAND RAPIDS   CLOUDY    52  44  74 NW14      29.90R
6HR MIN TEMP:  52; 6HR MAX TEMP:  64;

IONIA          CLOUDY    55  46  72 NW9       29.87R
KALAMAZOO      CLOUDY    53  46  77 NW10      29.90R
6HR MIN TEMP:  53; 6HR MAX TEMP:  60;

LUDINGTON      CLOUDY    49  45  85 N8        29.94R
6HR MIN TEMP:  49; 6HR MAX TEMP:  55;

MARSHALL       CLOUDY    54  47  79 W10       29.86R
MOUNT PLEASANT CLOUDY    49  43  78 NW8       29.88R
6HR MIN TEMP:  49; 6HR MAX TEMP:  60;

MUSKEGON       LGT RAIN  50  44  80 N14       29.94R
6HR MIN TEMP:  50; 6HR MAX TEMP:  60; 6HR PCP: TRACE;

SOUTH HAVEN    CLOUDY    53  46  75 N12G20    29.93R
$$
MIZ016>042-210100-
NORTHERN LOWER MICHIGAN

CITY           SKY/WX    TMP DP  RH WIND       PRES   REMARKS
ALPENA         CLOUDY    47  45  93 VRB6      29.85R
6HR MIN TEMP:  47; 6HR MAX TEMP:  52;

BEAVER ISLAND  CLOUDY    46  42  86 NW9G18    29.91R
6HR MIN TEMP:  46; 6HR MAX TEMP:  49;

BELLAIRE       CLOUDY    47  43  85 NW6       29.91R
CADILLAC       DRIZZLE   45  44  95 NW9       29.90R
CHARLEVOIX     CLOUDY    48  44  84 NW12G20   29.93R
6HR MIN TEMP:  48; 6HR MAX TEMP:  50;

FRANKFORT      CLOUDY    49  42  75 N10G20    29.93R
GAYLORD        CLOUDY    45  41  86 NW6       29.87R
6HR MIN TEMP:  45; 6HR MAX TEMP:  47;

GRAYLING       CLOUDY    49  46  88 NW6       29.89R
6HR MIN TEMP:  47; 6HR MAX TEMP:  54;

HARBOR SPRINGS CLOUDY    48  42  79 NW3       29.88S
HOUGHTON LAKE  CLOUDY    47  42  83 NW12      29.88R
6HR MIN TEMP:  47; 6HR MAX TEMP:  55;

MANISTEE       CLOUDY    48  41  76 N10       29.94R
OSCODA         CLOUDY    48  46  92 NW6       29.84R
PELLSTON       CLOUDY    47  43  86 NW14      29.89R
6HR MIN TEMP:  47; 6HR MAX TEMP:  50;

TRAVERSE CITY  DRIZZLE   48  42  80 NW14      29.91R
6HR MIN TEMP:  48; 6HR MAX TEMP:  50; 6HR PCP: TRACE;

$$
MIZ007>008-015-210100-
EASTERN UPPER MICHIGAN

CITY           SKY/WX    TMP DP  RH WIND       PRES   REMARKS
KINROSS        CLOUDY    46  46 100 NW7       29.87R
6HR MIN TEMP:  46; 6HR MAX TEMP:  48;

MACKINAC ISLAN CLOUDY    46  44  91 NW8       29.87R
6HR MIN TEMP:  46; 6HR MAX TEMP:  49;

NEWBERRY       CLOUDY    43  42  96 NW8G16    29.91R
S. S. MARIE    CLOUDY    48  41  76 VRB7      29.87R
6HR MIN TEMP:  48; 6HR MAX TEMP:  50; 6HR PCP: TRACE;

MUNISING         N/A     47  41  80 N15       29.96R
6HR MIN TEMP:  47; 6HR MAX TEMP:  48;

$$
MIZ004>006-011>014-085-210100-
CENTRAL UPPER MICHIGAN

CITY           SKY/WX    TMP DP  RH WIND       PRES   REMARKS
MANISTIQUE     CLOUDY    44  40  88 NW12G20   29.93R
ESCANABA       CLOUDY    45  37  76 N10       29.97R
6HR MIN TEMP:  45; 6HR MAX TEMP:  48;

MENOMINEE      CLOUDY    48  39  71 N5        29.97R
6HR MIN TEMP:  48; 6HR MAX TEMP:  52;

SAWYER-GWINN   CLOUDY    41  39  93 N13G20    29.97R
$$
MIZ001>003-009>011-084-210100-
WESTERN UPPER MICHIGAN

CITY           SKY/WX    TMP DP  RH WIND       PRES   REMARKS
IRON MOUNTAIN  CLOUDY    45  38  76 N9        29.98R
6HR MIN TEMP:  45; 6HR MAX TEMP:  49; 6HR PCP: TRACE;

HOUGHTON       CLOUDY    42  35  76 N10G20    30.03R
6HR MIN TEMP:  42; 6HR MAX TEMP:  45; 6HR PCP: TRACE;

COPPER HARBOR    N/A     45  39  79 NE17G26   30.02R
6HR MIN TEMP:  45; 6HR MAX TEMP:  46;

IRONWOOD       CLOUDY    45  43  93 N3        30.02R
6HR MIN TEMP:  45; 6HR MAX TEMP:  48;

$$

ABBREVIATIONS USED IN REMARKS
   TC - TEMPERATURE IN CELSIUS
  WCI - WIND CHILL INDEX
   HX - HEAT INDEX
  VSB - VISIBILITY



USA.gov is the U.S. government's official web portal to all federal, state and local government web resources and services.